Hourly Data Report for February 21, 2013

BAGOTVILLE A
QUEBEC

48°20'00.000" N
71°00'00.000" W
159.10 m
7060400
71727
YBG

Download Data

Hourly Data (February 2013)
Hourly Data Report for February 21, 2013
TIME
LST
Temp Definition
°C
Dew Point Definition
°C
Rel Hum Definition
%
Precip. Amount Definition
mm

Wind Dir Definition
10's deg

Wind Spd Definition
km/h
Visibility Definition
km
Stn Press Definition
kPa
Hmdx Definition


Wind Chill Definition


Weather Definition


00:00 -2.2 -4.2 86   29 9 3.2 98.20   -6 Snow
01:00 -2.0 -3.3 91   30 9 2.4 98.26   -5 Snow
02:00 -2.0 -3.9 87   30 9 4.0 98.32   -5 Snow
03:00 -1.8 -3.7 87   34 9 4.0 98.40   -5 Snow
04:00 -1.5 -3.0 89   35 11 4.0 98.49   -5 Snow
05:00 -1.4 -2.6 92   32 6 4.8 98.62   -4 Snow
06:00 -1.5 -3.0 89   32 6 12.9 98.73   -4 Snow
07:00 -0.6 -2.2 89   7 6 16.1 98.88   -3 Snow
08:00 -0.6 -4.2 77   4 7 24.1 99.05   -3 Mostly Cloudy
09:00 0.0 -2.6 83   5 6 16.1 99.19   -2 Cloudy
10:00 0.8 -2.7 77   3 9 16.1 99.31     Cloudy
11:00 1.4 -3.1 72   7 19 24.1 99.42     Cloudy
12:00 2.1 -3.4 67   9 17 24.1 99.50     Mostly Cloudy
13:00 1.5 -3.8 68   9 9 24.1 99.60     Cloudy
14:00 2.0 -3.2 68     0 24.1 99.71     Cloudy
15:00 1.4 -4.3 66   5 19 24.1 99.84     Cloudy
16:00 1.0 -3.3 73   3 9 24.1 100.00     Cloudy
17:00 0.6 -3.5 74   2 13 24.1 100.15     Snow Showers
18:00 0.4 -4.4 70   34 7 24.1 100.32     Cloudy
19:00 -0.2 -3.4 79   31 7 24.1 100.38   -3 Cloudy
20:00 -0.2 -4.0 76   36 6 24.1 100.42   -2 Cloudy
21:00 -0.7 -3.5 81   3 7 24.1 100.49   -3 Snow Showers
22:00 -0.8 -3.9 79   3 9 24.1 100.54   -4 Mostly Cloudy
23:00 -1.6 -5.5 75   3 6 24.1 100.62   -4 Mostly Cloudy

Notes on Data Quality.

Legend

  • E = Estimated
  • M = Missing
  • NA = Not Available*
  • [empty] = Indicates an unobserved value
Date modified: